Time,TemperatureF,DewpointF,PressureIn,WindDirection,WindDirectionDegrees,WindSpeedMPH,WindSpeedGustMPH,Humidity,HourlyPrecipIn,Conditions,Clouds,dailyrainin,SoftwareType,DateUTC
2013-05-19 00:41:00,75.0,16.0,-100.00,North,-999,-999.0,-999.0,10,-99.99,,,0.00,,2013-05-19 07:41:00,
2013-05-19 00:52:00,75.0,16.0,-100.00,North,-999,-999.0,-999.0,10,-99.99,,,0.00,,2013-05-19 07:52:00,
2013-05-19 01:01:00,75.0,16.0,-100.00,North,-999,-999.0,-999.0,10,-99.99,,,0.00,,2013-05-19 08:01:00,
2013-05-19 01:12:00,75.0,16.0,-100.00,North,-999,-999.0,-999.0,10,-99.99,,,0.00,,2013-05-19 08:12:00,
2013-05-19 02:30:00,71.0,-99.9,-100.00,North,-999,-999.0,-999.0,-999,-99.99,,,-99.99,,2013-05-19 09:30:00,
2013-05-19 02:53:00,71.0,-99.9,-100.00,North,-999,-999.0,-999.0,-999,-99.99,,,-99.99,,2013-05-19 09:53:00,
2013-05-19 03:03:00,71.0,-99.9,-100.00,North,-999,-999.0,-999.0,-999,-99.99,,,-99.99,,2013-05-19 10:03:00,
2013-05-19 03:13:00,71.0,-99.9,-100.00,North,-999,-999.0,-999.0,-999,-99.99,,,-99.99,,2013-05-19 10:13:00,
2013-05-19 03:23:00,71.0,-99.9,-100.00,North,-999,-999.0,-999.0,-999,-99.99,,,-99.99,,2013-05-19 10:23:00,
2013-05-19 04:32:00,68.0,-99.9,-100.00,North,-999,-999.0,-999.0,-999,-99.99,,,-99.99,,2013-05-19 11:32:00,
2013-05-19 06:11:00,65.0,23.0,-100.00,North,-999,-999.0,-999.0,20,-99.99,,,-99.99,,2013-05-19 13:11:00,
2013-05-19 06:21:00,65.0,23.0,-100.00,North,-999,-999.0,-999.0,20,-99.99,,,-99.99,,2013-05-19 13:21:00,
2013-05-19 06:31:00,65.0,23.0,-100.00,North,-999,-999.0,-999.0,20,-99.99,,,-99.99,,2013-05-19 13:31:00,
2013-05-19 07:21:00,71.0,22.0,-100.00,North,-999,-999.0,-999.0,15,-99.99,,,-99.99,,2013-05-19 14:21:00,
2013-05-19 07:31:00,71.0,22.0,-100.00,North,-999,-999.0,-999.0,15,-99.99,,,-99.99,,2013-05-19 14:31:00,
2013-05-19 07:42:00,71.0,22.0,-100.00,North,-999,-999.0,-999.0,15,-99.99,,,-99.99,,2013-05-19 14:42:00,
2013-05-19 07:52:00,71.0,22.0,-100.00,North,-999,-999.0,-999.0,15,-99.99,,,-99.99,,2013-05-19 14:52:00,
2013-05-19 08:01:00,74.0,21.0,-100.00,North,-999,-999.0,-999.0,13,-99.99,,,-99.99,,2013-05-19 15:01:00,
2013-05-19 08:12:00,77.0,-99.9,-100.00,North,-999,-999.0,-999.0,-999,-99.99,,,-99.99,,2013-05-19 15:12:00,
2013-05-19 08:22:00,77.0,-99.9,-100.00,North,-999,-999.0,-999.0,-999,-99.99,,,-99.99,,2013-05-19 15:22:00,
2013-05-19 08:33:00,77.0,-99.9,-100.00,North,-999,-999.0,-999.0,-999,-99.99,,,-99.99,,2013-05-19 15:33:00,
2013-05-19 08:43:00,77.0,-99.9,-100.00,North,-999,-999.0,-999.0,-999,-99.99,,,-99.99,,2013-05-19 15:43:00,
2013-05-19 12:22:00,80.0,-99.9,-100.00,North,-999,-999.0,-999.0,-999,-99.99,,,-99.99,,2013-05-19 19:22:00,
2013-05-19 12:32:00,80.0,-99.9,-100.00,North,-999,-999.0,-999.0,-999,-99.99,,,-99.99,,2013-05-19 19:32:00,
2013-05-19 12:42:00,81.0,26.0,-100.00,North,-999,-999.0,-999.0,13,-99.99,,,0.00,,2013-05-19 19:42:00,
2013-05-19 12:52:00,81.0,26.0,-100.00,North,-999,-999.0,-999.0,13,-99.99,,,0.00,,2013-05-19 19:52:00,
2013-05-19 13:02:00,81.0,26.0,-100.00,North,-999,-999.0,-999.0,13,-99.99,,,0.00,,2013-05-19 20:02:00,
2013-05-19 15:13:00,84.0,-99.9,-100.00,North,-999,-999.0,-999.0,-999,-99.99,,,-99.99,,2013-05-19 22:13:00,
2013-05-19 15:23:00,84.0,-99.9,-100.00,North,-999,-999.0,-999.0,-999,-99.99,,,-99.99,,2013-05-19 22:23:00,
2013-05-19 15:33:00,84.0,-99.9,-100.00,North,-999,-999.0,-999.0,-999,-99.99,,,-99.99,,2013-05-19 22:33:00,
2013-05-19 15:43:00,84.0,-99.9,-100.00,North,-999,-999.0,-999.0,-999,-99.99,,,-99.99,,2013-05-19 22:43:00,
2013-05-19 18:11:00,81.0,23.0,-100.00,North,-999,-999.0,-999.0,11,-99.99,,,-99.99,,2013-05-20 01:11:00,
2013-05-19 18:21:00,81.0,23.0,-100.00,North,-999,-999.0,-999.0,11,-99.99,,,-99.99,,2013-05-20 01:21:00,
2013-05-19 18:31:00,81.0,23.0,-100.00,North,-999,-999.0,-999.0,11,-99.99,,,-99.99,,2013-05-20 01:31:00,
2013-05-19 18:42:00,81.0,23.0,-100.00,North,-999,-999.0,-999.0,11,-99.99,,,-99.99,,2013-05-20 01:42:00,
2013-05-19 20:12:00,78.0,-99.9,-100.00,North,-999,-999.0,-999.0,-999,-99.99,,,-99.99,,2013-05-20 03:12:00,
2013-05-19 20:22:00,78.0,-99.9,-100.00,North,-999,-999.0,-999.0,-999,-99.99,,,-99.99,,2013-05-20 03:22:00,
2013-05-19 21:23:00,75.0,-99.9,-100.00,North,-999,-999.0,-999.0,-999,-99.99,,,-99.99,,2013-05-20 04:23:00,
2013-05-19 21:33:00,75.0,-99.9,-100.00,North,-999,-999.0,-999.0,-999,-99.99,,,-99.99,,2013-05-20 04:33:00,
2013-05-19 21:43:00,75.0,-99.9,-100.00,North,-999,-999.0,-999.0,-999,-99.99,,,-99.99,,2013-05-20 04:43:00,
2013-05-19 22:42:00,71.0,33.0,-100.00,North,-999,-999.0,-999.0,24,-99.99,,,-99.99,,2013-05-20 05:42:00,
2013-05-19 22:52:00,71.0,33.0,-100.00,North,-999,-999.0,-999.0,24,-99.99,,,-99.99,,2013-05-20 05:52:00,
2013-05-19 23:31:00,68.0,34.0,-100.00,North,-999,-999.0,-999.0,28,-99.99,,,-99.99,,2013-05-20 06:31:00,
2013-05-19 23:42:00,68.0,34.0,-100.00,North,-999,-999.0,-999.0,28,-99.99,,,-99.99,,2013-05-20 06:42:00,